Location: Unspecified
(48.8656°N, 0.0000°E)
Time: 15:18:25
(UTC+00:00)

Vanguard 1 Rocket - Pass Details

Date: 25 June 2019
Orbit: 651 x 4225 km, 34.3° (Epoch: 16 July)

Event Time Altitude Azimuth Distance (km) Brightness Sun altitude
Rises 13:48:14 0° 200° (SSW) 8,434 12.7 57.1°
Reaches altitude 10° 13:56:37 10° 188° (S) 7,176 12.5 56.1°
Maximum altitude 14:11:28 22° 148° (SSE) 5,280 11.6 54.1°
Drops below altitude 10° 14:22:16 10° 106° (ESE) 5,160 11.1 52.6°
Sets 14:26:45 0° 92° (E) 5,631 11.1 51.9°
